Simultaneous Nadir Overpasses (SNOs) Predictions

Prediction of SNOs between NPP and TERRA Satellite Orbit:

Table of predicted SNOs for the next 14.0 days since TLE Epoch: 7/28/2014
Index Date (NPP) Time (NPP) Lat,Lon (NPP) SZA (NPP ) Date (TERRA) Time (TERRA) Lat,Lon (TERRA) SZA (TERRA ) Distance(km) Time Diff (sec)
1 07/29/2014 13:25:51 69.27, -22.34 50.50 07/29/2014 13:27:03 69.20, -21.98 50.42 16.26 72
2 07/29/2014 14:16:29 -68.97, 145.40 129.80 07/29/2014 14:16:35 -68.98, 145.37 129.79 1.48 6
3 07/29/2014 15:07:13 68.84, -47.12 50.08 07/29/2014 15:06:02 68.88, -47.12 50.12 3.48 71
4 08/01/2014 05:42:47 69.08, 93.70 50.96 08/01/2014 05:43:38 69.07, 93.72 50.95 0.98 51
5 08/01/2014 06:33:28 -68.94, -98.78 129.18 08/01/2014 06:33:08 -68.97, -98.78 129.15 3.35 20
6 08/01/2014 07:23:57 68.01, 69.75 49.89 08/01/2014 07:22:49 68.08, 67.77 49.99 82.78 68
7 08/03/2014 21:59:46 69.05,-150.49 51.62 08/03/2014 22:00:11 69.05,-150.45 51.62 1.67 25
8 08/03/2014 22:50:27 -68.91, 17.03 128.52 08/03/2014 22:49:42 -68.89, 16.99 128.53 2.30 45
9 08/06/2014 13:26:04 -69.31, 157.61 127.40 08/06/2014 13:27:15 -69.25, 158.03 127.48 17.82 71
10 08/06/2014 14:16:45 69.03, -34.68 52.32 08/06/2014 14:16:44 69.02, -34.62 52.31 2.85 1
11 08/06/2014 15:07:26 -68.88, 132.83 127.82 08/06/2014 15:06:15 -68.87, 132.82 127.83 1.75 71
12 08/09/2014 05:42:58 -69.08, -86.29 126.89 08/09/2014 05:43:49 -69.11, -86.29 126.87 2.98 51
13 08/09/2014 06:33:42 68.96, 81.18
